When you browse on this site, cookies collect data to enhance your experience and personalize the content and advertising you see.
Visit our Privacy Policy to learn more. By continuing to use the site, you agree to this use of cookies and data.
  • In United Kingdom
  • List of Countries
  • For 7 days
  • Water Temperature
  • Weather Map
  • Weather Widgets
  • user-avatar
    Login

    Hourly Weather Codajas

    Today, 20 January, Monday

    Time Temperature Precipitation Wind Pressure Humidity
    00:00 +24°C° 0.2 mm 0 mps 755 mmHg 95%
    01:00 +24°C° 0.2 mm 0 mps 755 mmHg 96%
    02:00 +23°C° 0.2 mm 0 mps 754 mmHg 96%
    03:00 +23°C° 0 mm 0 mps 754 mmHg 96%
    04:00 +23°C° 0 mm 0 mps 754 mmHg 96%
    05:00 +23°C° 0 mm 0 mps 754 mmHg 97%
    06:00 +24°C° 0 mm 0 mps 755 mmHg 94%
    07:00 +25°C° 0 mm 0 mps 755 mmHg 92%
    08:00 +26°C° 0 mm 0 mps 756 mmHg 89%
    09:00 +28°C° 0.6 mm 0 mps 756 mmHg 81%
    10:00 +32°C° 0.6 mm 1 mps 756 mmHg 73%
    11:00 +33°C° 0.6 mm 1 mps 755 mmHg 65%
    12:00 +33°C° 2.1 mm 1 mps 755 mmHg 71%
    13:00 +32°C° 2.1 mm 1 mps 754 mmHg 78%
    14:00 +31°C° 2.1 mm 1 mps 753 mmHg 84%
    15:00 +29°C° 0.8 mm 0 mps 753 mmHg 84%
    16:00 +29°C° 0.8 mm 0 mps 752 mmHg 84%
    17:00 +29°C° 0.8 mm 0 mps 752 mmHg 84%
    18:00 +28°C° 0.1 mm 0 mps 753 mmHg 87%
    19:00 +26°C° 0.1 mm 0 mps 753 mmHg 90%
    20:00 +25°C° 0.1 mm 0 mps 754 mmHg 92%
    21:00 +25°C° 0.1 mm 0 mps 754 mmHg 93%
    22:00 +25°C° 0.1 mm 0 mps 754 mmHg 93%
    23:00 +25°C° 0.1 mm 0 mps 755 mmHg 93%

    Tomorrow, 21 January, Tuesday

    Time Temperature Precipitation Wind Pressure Humidity
    00:00 +24°C° 0.1 mm 0 mps 754 mmHg 94%
    01:00 +24°C° 0.1 mm 0 mps 754 mmHg 94%
    02:00 +24°C° 0.1 mm 0 mps 753 mmHg 95%
    03:00 +24°C° 0 mm 0 mps 753 mmHg 95%
    04:00 +24°C° 0 mm 0 mps 753 mmHg 95%
    05:00 +23°C° 0 mm 0 mps 753 mmHg 95%
    06:00 +24°C° 0.3 mm 0 mps 754 mmHg 94%
    07:00 +25°C° 0.3 mm 0 mps 754 mmHg 93%
    08:00 +26°C° 0.3 mm 0 mps 755 mmHg 93%
    09:00 +27°C° 1.1 mm 0 mps 755 mmHg 89%
    10:00 +30°C° 1.1 mm 1 mps 755 mmHg 85%
    11:00 +32°C° 1.1 mm 1 mps 755 mmHg 81%
    12:00 +31°C° 1.7 mm 1 mps 754 mmHg 83%
    13:00 +31°C° 1.7 mm 2 mps 753 mmHg 85%
    14:00 +31°C° 1.7 mm 2 mps 752 mmHg 87%
    15:00 +30°C° 0.8 mm 1 mps 752 mmHg 88%
    16:00 +30°C° 0.8 mm 1 mps 752 mmHg 88%
    17:00 +28°C° 0.8 mm 0 mps 751 mmHg 89%
    18:00 +27°C° 1.1 mm 0 mps 752 mmHg 91%
    19:00 +26°C° 1.1 mm 0 mps 752 mmHg 93%
    20:00 +25°C° 1.1 mm 0 mps 753 mmHg 95%
    21:00 +25°C° 0.4 mm 0 mps 753 mmHg 95%
    22:00 +25°C° 0.4 mm 0 mps 753 mmHg 95%
    23:00 +24°C° 0.4 mm 0 mps 754 mmHg 96%

    Day after tomorrow, 22 January, Wednesday

    Time Temperature Precipitation Wind Pressure Humidity
    00:00 +24°C° 0 mm 0 mps 753 mmHg 96%
    01:00 +24°C° 0 mm 0 mps 753 mmHg 97%
    02:00 +24°C° 0 mm 0 mps 752 mmHg 97%
    03:00 +24°C° 0.2 mm 0 mps 752 mmHg 97%
    04:00 +24°C° 0.2 mm 0 mps 752 mmHg 98%
    05:00 +23°C° 0.2 mm 0 mps 753 mmHg 98%
    06:00 +24°C° 1 mm 0 mps 753 mmHg 97%
    07:00 +24°C° 1 mm 0 mps 753 mmHg 96%
    08:00 +27°C° 1 mm 1 mps 754 mmHg 95%
    09:00 +28°C° 0.7 mm 1 mps 754 mmHg 93%
    10:00 +29°C° 0.7 mm 1 mps 754 mmHg 91%
    11:00 +30°C° 0.7 mm 1 mps 754 mmHg 88%
    12:00 +31°C° 0.9 mm 1 mps 753 mmHg 78%
    13:00 +33°C° 0.9 mm 1 mps 753 mmHg 68%
    14:00 +34°C° 0.9 mm 1 mps 752 mmHg 58%
    15:00 +34°C° 0 mm 1 mps 751 mmHg 60%
    16:00 +34°C° 0 mm 1 mps 751 mmHg 61%
    17:00 +32°C° 0 mm 0 mps 751 mmHg 62%
    18:00 +30°C° 0 mm 0 mps 751 mmHg 68%
    19:00 +28°C° 0 mm 0 mps 752 mmHg 74%
    20:00 +26°C° 0 mm 0 mps 752 mmHg 79%
    21:00 +26°C° 0 mm 0 mps 752 mmHg 81%
    22:00 +25°C° 0 mm 0 mps 753 mmHg 83%
    23:00 +25°C° 0 mm 0 mps 753 mmHg 85%

    23 January, Thursday

    Time Temperature Precipitation Wind Pressure Humidity
    00:00 +24°C° 0 mm 0 mps 753 mmHg 86%
    01:00 +24°C° 0 mm 0 mps 752 mmHg 86%
    02:00 +24°C° 0 mm 0 mps 752 mmHg 87%
    03:00 +24°C° 0 mm 0 mps 752 mmHg 87%
    04:00 +24°C° 0 mm 0 mps 752 mmHg 86%
    05:00 +23°C° 0 mm 0 mps 752 mmHg 86%
    06:00 +24°C° 0 mm 0 mps 753 mmHg 84%
    07:00 +25°C° 0 mm 0 mps 753 mmHg 82%
    08:00 +26°C° 0 mm 0 mps 754 mmHg 80%
    09:00 +30°C° 0 mm 1 mps 754 mmHg 70%
    10:00 +33°C° 0 mm 1 mps 754 mmHg 60%
    11:00 +35°C° 0 mm 1 mps 754 mmHg 50%
    12:00 +36°C° 0 mm 1 mps 753 mmHg 48%
    13:00 +37°C° 0 mm 1 mps 752 mmHg 45%
    14:00 +37°C° 0 mm 1 mps 751 mmHg 43%
    15:00 +37°C° 0 mm 1 mps 750 mmHg 48%
    16:00 +36°C° 0 mm 1 mps 750 mmHg 53%
    17:00 +33°C° 0 mm 0 mps 750 mmHg 57%
    18:00 +31°C° 0 mm 0 mps 750 mmHg 63%
    19:00 +29°C° 0 mm 0 mps 751 mmHg 69%
    20:00 +30°C° 0 mm 1 mps 752 mmHg 75%
    21:00 +29°C° 0 mm 1 mps 752 mmHg 77%
    22:00 +28°C° 0 mm 1 mps 752 mmHg 79%
    23:00 +28°C° 0 mm 1 mps 753 mmHg 81%

    24 January, Friday

    Time Temperature Precipitation Wind Pressure Humidity
    00:00 +27°C° 0 mm 1 mps 753 mmHg 82%
    01:00 +27°C° 0 mm 1 mps 752 mmHg 82%
    02:00 +25°C° 0 mm 0 mps 752 mmHg 82%
    03:00 +25°C° 0 mm 0 mps 752 mmHg 83%
    04:00 +24°C° 0 mm 0 mps 752 mmHg 84%
    05:00 +24°C° 0 mm 0 mps 752 mmHg 85%
    06:00 +25°C° 0 mm 0 mps 753 mmHg 83%
    07:00 +26°C° 0 mm 0 mps 753 mmHg 81%
    08:00 +27°C° 0 mm 0 mps 754 mmHg 79%
    09:00 +29°C° 0 mm 0 mps 754 mmHg 69%
    10:00 +32°C° 0 mm 0 mps 754 mmHg 59%
    11:00 +35°C° 0 mm 0 mps 754 mmHg 49%
    12:00 +35°C° 0 mm 0 mps 753 mmHg 47%
    13:00 +35°C° 0 mm 0 mps 752 mmHg 44%
    14:00 +39°C° 0 mm 1 mps 751 mmHg 42%
    15:00 +35°C° 0 mm 0 mps 751 mmHg 48%
    16:00 +34°C° 0 mm 0 mps 750 mmHg 54%
    17:00 +33°C° 0 mm 0 mps 750 mmHg 59%
    18:00 +33°C° 0.5 mm 1 mps 751 mmHg 68%
    19:00 +31°C° 0.5 mm 1 mps 751 mmHg 76%
    20:00 +28°C° 0.5 mm 2 mps 752 mmHg 84%
    21:00 +28°C° 1.7 mm 1 mps 753 mmHg 88%
    22:00 +27°C° 1.7 mm 1 mps 753 mmHg 91%
    23:00 +24°C° 1.7 mm 0 mps 754 mmHg 95%

    25 January, Saturday

    Time Temperature Precipitation Wind Pressure Humidity
    00:00 +24°C° 2.2 mm 0 mps 754 mmHg 96%
    01:00 +26°C° 2.2 mm 1 mps 753 mmHg 97%
    02:00 +26°C° 2.2 mm 1 mps 753 mmHg 98%
    03:00 +26°C° 0.4 mm 1 mps 753 mmHg 98%
    04:00 +24°C° 0.4 mm 0 mps 753 mmHg 98%
    05:00 +24°C° 0.4 mm 0 mps 753 mmHg 98%
    06:00 +24°C° 0 mm 0 mps 754 mmHg 97%
    07:00 +27°C° 0 mm 1 mps 754 mmHg 96%
    08:00 +27°C° 0 mm 1 mps 755 mmHg 94%
    09:00 +29°C° 0.6 mm 1 mps 755 mmHg 90%
    10:00 +30°C° 0.6 mm 1 mps 755 mmHg 85%
    11:00 +32°C° 0.6 mm 1 mps 755 mmHg 80%
    12:00 +32°C° 1.6 mm 1 mps 754 mmHg 80%
    13:00 +32°C° 1.6 mm 1 mps 754 mmHg 80%
    14:00 +31°C° 1.6 mm 1 mps 753 mmHg 81%
    15:00 +31°C° 1 mm 1 mps 753 mmHg 83%
    16:00 +31°C° 1 mm 1 mps 752 mmHg 86%
    17:00 +28°C° 1 mm 0 mps 752 mmHg 88%
    18:00 +27°C° 0.1 mm 0 mps 753 mmHg 90%
    19:00 +26°C° 0.1 mm 0 mps 754 mmHg 93%
    20:00 +25°C° 0.1 mm 0 mps 754 mmHg 95%
    21:00 +25°C° 0 mm 0 mps 755 mmHg 95%
    22:00 +24°C° 0 mm 0 mps 755 mmHg 96%
    23:00 +24°C° 0 mm 0 mps 755 mmHg 96%
    Show more